Weather History for KIPL - July, 2012

Change the Weather History Date:

Thursday, July 19, 2012

  Actual Average (KCZZ) Record (KCZZ)
Temperature  
Mean Temperature 91 °F 74 °F  
Max Temperature 108 °F 94 °F 104 °F (1990)
Min Temperature 75 °F 53 °F 35 °F (1987)
Degree Days  
Heating Degree Days 0 0  
Month to date heating degree days 4  
Since 1 June heating degree days 60  
Since 1 July heating degree days 4  
Cooling Degree Days 26 9  
Month to date cooling degree days 142  
Year to date cooling degree days 264  
Since 1 June cooling degree days 234  
Growing Degree Days 41 (Base 50)    
Moisture  
Dew Point 55 °F    
Average Humidity 30    
Maximum Humidity 50    
Minimum Humidity 15    
Precipitation  
Precipitation 0.00 in 0.02 in 1.49 in (1985)
Month to date precipitation 0.14  
Year to date precipitation 10.29  
Sea Level Pressure  
Sea Level Pressure 29.80 in    
Wind  
Wind Speed 5 mph (SSE)    
Max Wind Speed 13 mph    
Max Gust Speed -    
Visibility 10 miles    
Events      
T = Trace of Precipitation, MM = Missing Value Source: NWS Daily Summary

Daily Weather History Graph

Daily Weather History Graph

Search for Another Location

Airport or City:

Trip Planner

Search our weather history database for the weather conditions in past years. The results will help you decide how hot, cold, wet, or windy it might be!

Date:

Astronomy

Jul. 19, 2012 Rise Set
Actual Time 5:47 AM PDT 7:49 PM PDT
Civil Twilight 5:20 AM PDT 8:16 PM PDT
Nautical Twilight 4:46 AM PDT 8:50 PM PDT
Astronomical Twilight 4:10 AM PDT 9:26 PM PDT
Moon 6:21 AM PDT (7/19) 8:04 PM PDT (7/19)
Length of Visible Light 14h 56m
Length of Day
14h 01m
New Moon, 0% of the Moon is Illuminated
Jul 19
New Moon
Jul 26
First Quarter
Aug 1
Full
Aug 9
Last Quarter
Aug 17
New

Hourly Weather History & Observations

Time (PDT) Temp. Heat Index Dew Point Humidity Pressure Visibility Wind Dir Wind Speed Gust Speed Precip Events Conditions
12:53 AM 86.0 °F - 42.1 °F 21% 29.78 in 10.0 mi East 3.5 mph - N/A   Clear
1:53 AM 75.0 °F - 53.1 °F 46% 29.78 in 10.0 mi West 8.1 mph - N/A   Clear
2:53 AM 77.0 °F - 52.0 °F 42% 29.77 in 10.0 mi NW 3.5 mph - N/A   Clear
3:53 AM 77.0 °F - 48.0 °F 36% 29.78 in 10.0 mi Calm Calm - N/A   Clear
4:53 AM 78.1 °F - 52.0 °F 40% 29.79 in 10.0 mi Calm Calm - N/A   Clear
5:53 AM 77.0 °F - 53.1 °F 43% 29.82 in 10.0 mi East 3.5 mph - N/A   Clear
6:53 AM 79.0 °F - 59.0 °F 50% 29.84 in 10.0 mi SSE 6.9 mph - N/A   Clear
7:53 AM 87.1 °F 87.5 °F 62.1 °F 43% 29.85 in 10.0 mi South 9.2 mph - N/A   Clear
8:53 AM 90.0 °F 91.7 °F 64.9 °F 43% 29.86 in 10.0 mi South 3.5 mph - N/A   Clear
9:53 AM 91.0 °F 95.2 °F 68.0 °F 47% 29.86 in 10.0 mi West 3.5 mph - N/A   Clear
10:53 AM 97.0 °F 96.1 °F 57.9 °F 27% 29.86 in 10.0 mi Variable 3.5 mph - N/A   Clear
11:53 AM 100.0 °F 97.9 °F 54.0 °F 21% 29.85 in 10.0 mi ESE 5.8 mph - N/A   Clear
12:53 PM 102.9 °F - 50.0 °F 17% 29.83 in 10.0 mi East 3.5 mph - N/A   Clear
1:53 PM 106.0 °F - 50.0 °F 15% 29.81 in 10.0 mi NE 5.8 mph - N/A   Clear
2:53 PM 107.1 °F - 51.1 °F 16% 29.79 in 10.0 mi East 9.2 mph - N/A   Clear
3:53 PM 106.0 °F 103.9 °F 53.1 °F 17% 29.77 in 10.0 mi Variable 4.6 mph - N/A   Clear
4:53 PM 106.0 °F - 52.0 °F 17% 29.75 in 10.0 mi Variable 4.6 mph - N/A   Clear
5:53 PM 106.0 °F - 52.0 °F 17% 29.74 in 10.0 mi ESE 6.9 mph - N/A   Scattered Clouds
6:53 PM 102.9 °F 103.6 °F 60.1 °F 24% 29.75 in 10.0 mi SE 12.7 mph - N/A   Scattered Clouds
7:53 PM 100.0 °F 99.7 °F 57.9 °F 25% 29.76 in 10.0 mi SSE 10.4 mph - N/A   Partly Cloudy
8:53 PM 97.0 °F 95.3 °F 55.9 °F 25% 29.79 in 10.0 mi South 5.8 mph - N/A   Clear
9:53 PM 93.9 °F 92.6 °F 57.0 °F 29% 29.81 in 10.0 mi SSW 5.8 mph - N/A   Clear
10:53 PM 90.0 °F 87.9 °F 55.0 °F 30% 29.81 in 10.0 mi West 6.9 mph - N/A   Clear
11:53 PM 86.0 °F 84.7 °F 55.9 °F 36% 29.81 in 10.0 mi West 4.6 mph - N/A   Clear